Weather History for Russell, KS

Change the Weather History Date:

Saturday, July 13, 2013

  Actual Average Record
Temperature  
Mean Temperature 92 °F -  
Max Temperature 107 °F 93 °F 111 °F (1954)
Min Temperature 78 °F 68 °F 47 °F (1990)
Cooling Degree Days 28    
Growing Degree Days 42 (Base 50)    
Moisture  
Dew Point 62 °F    
Average Humidity 40    
Maximum Humidity 66    
Minimum Humidity 19    
Precipitation  
Precipitation 0.00 in - - ()
Sea Level Pressure  
Sea Level Pressure 29.83 in    
Wind  
Wind Speed 18 mph (South)    
Max Wind Speed 24 mph    
Max Gust Speed 43 mph    
Visibility 10 miles    
Events      
Averages and records for this station are not official NWS values.
T = Trace of Precipitation, MM = Missing Value Source: NWS Daily Summary

Daily Weather History Graph

Daily Weather History Graph

Search for Another Location

Airport:

Trip Planner

Search our weather history database for the weather conditions in past years. The results will help you decide how hot, cold, wet, or windy it might be!

Date:

Astronomy

Jul. 13, 2013 Rise Set
Actual Time 6:21 AM CDT 9:00 PM CDT
Civil Twilight 5:49 AM CDT 9:31 PM CDT
Nautical Twilight 5:10 AM CDT 10:10 PM CDT
Astronomical Twilight 4:26 AM CDT 10:54 PM CDT
Moon 11:35 AM CDT (7/13) 11:45 PM CDT (7/13)
Length of Visible Light 15h 42m
Length of Day
14h 39m
Waxing Crescent, 26% of the Moon is Illuminated
Jul 13
Waxing Crescent
Jul 15
First Quarter
Jul 22
Full
Jul 29
Last Quarter
Aug 6
New

Hourly Weather History & Observations

Time (CDT) Temp. Heat Index Dew Point Humidity Pressure Visibility Wind Dir Wind Speed Gust Speed Precip Events Conditions
12:53 AM 84.9 °F 87.1 °F 66.0 °F 53% 29.86 in 10.0 mi South 19.6 mph - N/A   Clear
1:53 AM 82.9 °F 85.0 °F 66.0 °F 56% 29.86 in 10.0 mi South 19.6 mph 26.5 mph N/A   Clear
2:53 AM 82.0 °F 84.1 °F 66.0 °F 58% 29.86 in 10.0 mi South 17.3 mph - N/A   Clear
3:53 AM 81.0 °F 83.0 °F 66.0 °F 60% 29.87 in 10.0 mi South 15.0 mph - N/A   Clear
4:53 AM 80.1 °F 82.1 °F 66.0 °F 62% 29.86 in 10.0 mi South 16.1 mph - N/A   Clear
5:53 AM 79.0 °F - 66.0 °F 64% 29.86 in 10.0 mi South 16.1 mph - N/A   Clear
6:53 AM 78.1 °F - 66.0 °F 66% 29.87 in 10.0 mi South 16.1 mph - N/A   Clear
7:53 AM 81.0 °F 83.0 °F 66.0 °F 60% 29.86 in 10.0 mi South 20.7 mph 35.7 mph N/A   Clear
8:53 AM 84.9 °F 86.6 °F 64.9 °F 51% 29.86 in 10.0 mi SSW 21.9 mph 42.6 mph N/A   Clear
9:53 AM 91.0 °F 93.0 °F 64.9 °F 42% 29.86 in 10.0 mi SSW 19.6 mph - N/A   Clear
10:53 AM 96.1 °F 96.9 °F 62.1 °F 32% 29.85 in 10.0 mi SSW 18.4 mph 24.2 mph N/A   Clear
11:23 AM 98.6 °F 99.4 °F 60.8 °F 29% 29.93 in 10.0 mi SSW 16.1 mph 23.0 mph N/A   Partly Cloudy
11:53 AM 100.0 °F 101.2 °F 61.0 °F 28% 29.85 in 10.0 mi South 13.8 mph 20.7 mph N/A   Clear
12:53 PM 104.0 °F 104.0 °F 57.9 °F 22% 29.84 in 10.0 mi SW 12.7 mph 18.4 mph N/A   Clear
1:53 PM 105.1 °F 104.4 °F 57.0 °F 20% 29.82 in 10.0 mi South 10.4 mph 20.7 mph N/A   Clear
2:53 PM 105.1 °F 105.7 °F 59.0 °F 22% 29.81 in 10.0 mi SSE 20.7 mph 24.2 mph N/A   Partly Cloudy
3:53 PM 107.1 °F 106.7 °F 55.9 °F 19% 29.79 in 10.0 mi South 15.0 mph 25.3 mph N/A   Partly Cloudy
4:53 PM 106.0 °F 105.8 °F 57.0 °F 20% 29.78 in 10.0 mi South 18.4 mph 25.3 mph N/A   Clear
5:53 PM 105.1 °F 104.4 °F 55.9 °F 20% 29.77 in 10.0 mi South 19.6 mph 27.6 mph N/A   Clear
6:53 PM 102.9 °F 101.4 °F 55.0 °F 20% 29.76 in 10.0 mi SSE 21.9 mph 27.6 mph N/A   Clear
7:53 PM 100.0 °F 100.7 °F 60.1 °F 27% 29.77 in 10.0 mi SSE 17.3 mph 28.8 mph N/A   Clear
8:53 PM 95.0 °F 95.6 °F 62.1 °F 33% 29.79 in 10.0 mi SE 23.0 mph 27.6 mph N/A   Clear
9:53 PM 90.0 °F 91.7 °F 64.9 °F 43% 29.81 in 10.0 mi SSE 19.6 mph 27.6 mph N/A   Clear
10:53 PM 88.0 °F 89.6 °F 64.9 °F 46% 29.81 in 10.0 mi SSE 24.2 mph 29.9 mph N/A   Clear
11:53 PM 86.0 °F 87.6 °F 64.9 °F 49% 29.83 in 10.0 mi SSE 19.6 mph 29.9 mph N/A   Clear